Regional Weather Roundup
Issued by NWS Huntsville, AL

Home | Current Version | Previous Version | Text Only | Print | Product List | Glossary On
Versions: 1 2 3 4 5 6 7 8 9 10 11 12 13 14 15 16 17 18 19 20 21 22 23 24 25 26 27
000
ASUS44 KHUN 240510
RWRHUN

WEATHER ROUNDUP FOR THE TENNESSEE VALLEY
NATIONAL WEATHER SERVICE HUNTSVILLE AL
1200 AM CDT SAT JUN 24 2017

ALZ001>004-240600-
NORTHWEST ALABAMA

CITY           SKY/WX    TMP DP  RH WIND       PRES   REMARKS
COURTLAND HCN    N/A     75 N/A N/A S5          N/A
RUSSELLVILLE     N/A     75 N/A N/A MISG        N/A
SHOALS AIRPORT CLOUDY    76  73  91 S7        29.90R
SHOALS TVA RES   N/A     75 N/A N/A MISG        N/A
$$

ALZ005>007-016-240600-
NORTH CENTRAL ALABAMA

CITY           SKY/WX    TMP DP  RH WIND       PRES   REMARKS
CULLMAN AG STN   N/A     73 N/A N/A S3          N/A
DECATUR AP     CLOUDY    75  74  96 SW5       29.91F
HUNTSVILLE AP  CLOUDY    76  76 100 S3        29.91F
MERIDIANVILLE  CLOUDY    73  72  94 CALM      29.92S
REDSTONE ARSN  CLOUDY    74  73  97 S5        29.91F
VINEMONT AP    MOCLDY    73  72  97 CALM      29.96F
$$

ALZ008>010-240600-
NORTHEAST ALABAMA

CITY           SKY/WX    TMP DP  RH WIND       PRES   REMARKS
ALBERTVILLE    CLOUDY    72  72 100 SW9       29.95S FOG
FORT PAYNE     NOT AVBL
SCOTTSBORO AP  CLOUDY    75  75 100 SW3       29.93F
SCOTTSBORO HCN   N/A     75 N/A N/A MISG        N/A
VALLEY HEAD      N/A     72 N/A N/A MISG        N/A
$$

TNZ076-096-097-240600-
SOUTHEASTERN MIDDLE TENNESSEE

CITY           SKY/WX    TMP DP  RH WIND       PRES   REMARKS
TULLAHOMA      CLOUDY    73  72  94 S6        29.93S
WINCHESTER     CLOUDY    73  73 100 CALM        N/A
$$

...SURROUNDING SITES...

CITY           SKY/WX    TMP DP  RH WIND       PRES   REMARKS
ATLANTA        PTCLDY    72  71  97 SW9       29.98F
ANNISTON       HVY RAIN  73  71  93 S8        29.98S FOG
BIRMINGHAM     CLOUDY    74  72  93 SW6       29.99S
CHATTANOOGA    CLOUDY    75  72  90 CALM      29.93F
CORINTH        DRIZZLE   75  70  83 NW12      29.92R
DALTON         CLOUDY    72  72 100 CALM      29.95F
GADSDEN        CLOUDY    73  72  96 VRB5      29.96S
GOLDEN TRNGL   CLOUDY    75  70  83 S12       29.89R
JACKSON TN     CLOUDY    73  72  96 NW7       29.92R
MEMPHIS        CLOUDY    73  71  93 NW6       29.93S
NASHVILLE      CLOUDY    78  73  84 W7        29.89R
OXFORD MS      FAIR      68  68 100 NW5       29.95F
ROME           CLOUDY    74  74 100 SW3       29.94F
SAVANNAH       PTCLDY    77  73  88 CALM      29.90R
SELMER         MOCLDY    73  70  88 NW5       29.92R
TUPELO         PTCLDY    74  72  93 W3        29.89R
TUSCALOOSA     CLOUDY    74  74 100 S6        29.95R
$$

...GULF COAST WEATHER...

CITY           SKY/WX    TMP DP  RH WIND       PRES   REMARKS
GULFPORT       CLOUDY    81  79  94 W6        29.99R HX  90
PASCAGOULA     CLOUDY    81  76  84 S5        30.00R
MOBILE         MOCLDY    80  76  87 S8        30.01R
GULF SHORES    CLOUDY    80  80 100 S7        30.02R
PENSACOLA      CLOUDY    81  75  83 S9        30.01R
DESTIN         CLOUDY    83  82  97 S10       30.01R HX  98
PANAMA CITY    PTCLDY    80  74  83 SW7       30.02F
APPALACHICOLA  CLEAR     81  78  91 SW7       30.03F
$$





USA.gov is the U.S. government's official web portal to all federal, state and local government web resources and services.